Location: Kott?ru
(16.6209°N, 80.6208°E)
Time: 14:13:52
(UTC+00:00)

H-2A R/B - Pass Details

Date: 18 September 2020
Orbit: 577 x 655 km, 98.5° (Epoch: 30 October)

Event Time Altitude Azimuth Distance (km) Brightness Sun altitude
Rises 23:07:14 0° 181° (S) 2,828 5.4 -19.7°
Reaches altitude 10° 23:09:27 10° 189° (S) 1,939 4.4 -19.1°
Maximum altitude 23:13:26 41° 259° (W) 886 2.3 -18.2°
Drops below altitude 10° 23:17:31 10° 330° (NNW) 1,989 4.4 -17.2°
Sets 23:19:50 0° 338° (NNW) 2,910 5.4 -16.7°
